Location: Centerville
(32.8776°N, 96.6203°W)
Time: 05:25:25
(UTC+00:00)

CARTOSAT-1 - Pass Details

Date: 17 June 2021
Orbit: 616 x 618 km, 97.8° (Epoch: 29 July)

Event Time Altitude Azimuth Distance (km) Brightness Sun altitude
Exits shadow 03:39:19 46° 92° (E) 827 3.8 -20.9°
Maximum altitude 03:39:42 48° 75° (ENE) 810 3.9 -21.0°
Drops below altitude 10° 03:43:51 10° 1° (N) 1,986 6.8 -21.5°
Sets 03:46:06 0° 356° (N) 2,896 7.9 -21.8°
